Regional Weather Roundup
Issued by NWS

Home | Current Version | Previous Version | Graphics & Text | Print | Product List | Glossary On
Versions: 1 2 3 4 5 6 7 8 9 10 11 12 13 14 15 16 17 18 19 20 21 22 23 24 25 26 27 28 29 30 31 32 33 34 35 36 37 38 39 40 41 42 43 44 45 46 47 48 49 50
000
ASUS43 KMPX 310910
RWRMN
WEATHER ROUNDUP FOR MINNESOTA
NATIONAL WEATHER SERVICE TWIN CITIES/CHANHASSEN MN
400 AM CDT MON AUG 31 2015


NOTE: "FAIR" INDICATES FEW OR NO CLOUDS BELOW 12,000 FEET WITH NO
SIGNIFICANT WEATHER AND/OR OBSTRUCTIONS TO VISIBILITY. N/A MEANS
CURRENT SKY AND/OR WEATHER CONDITIONS ARE NOT AVAILABLE.

MNZ060>063-068>070-311000-
   Twin Cities Metro

CITY           SKY/WX    TMP DP  RH WIND       PRES   REMARKS
TWIN CITIES    MOCLDY    64  62  93 SE7       29.93S
ST PAUL        PTCLDY    64  63  96 SE8       29.94S FOG
CRYSTAL        CLEAR     68  64  87 S6        29.91S
BLAINE         PTCLDY    66  66 100 S5        29.92S
LAKEVILLE      CLEAR     61  61 100 S3        29.94S FOG
EDEN PRAIRIE   CLEAR     66  64  93 S9        29.92S
SOUTH ST PAUL  CLEAR     64  62  94 S6        29.94S FOG
LAKE ELMO      FAIR      63  61  94 S6        29.95S FOG
$$
MNZ001>005-007-008-013>017-022>024-027-028-311000-
   Northwest Minnesota

CITY           SKY/WX    TMP DP  RH WIND       PRES   REMARKS
BEMIDJI        CLEAR     65  60  84 S9        29.78S
HALLOCK        CLEAR     70  66  88 S14       29.62S
ROSEAU         CLEAR     70  63  78 S13       29.67F
WARROAD        CLEAR     68  64  88 S6        29.69S
THIEF RVR FALL CLEAR    N/A N/A N/A S9        29.69S
CROOKSTON      CLEAR     68  61  77 S13G18    29.69R
FOSSTON        CLEAR     66  55  68 S13       29.72F
DETROIT LAKES  CLEAR     66  59  77 S13       29.78S
MOORHEAD       CLEAR     66  61  82 S14       29.71F
PARK RAPIDS    PTCLDY    64  60  87 S10       29.80F
MAHNOMEN       FAIR      66  58  74 S9        29.73S
$$
MNZ006-009>011-018-025>026-311000-
   North Central Minnesota

CITY           SKY/WX    TMP DP  RH WIND       PRES   REMARKS
BAUDETTE       CLEAR     67  62  84 S8        29.71F
FLAG ISLAND    CLEAR     68  64  88 S12       29.67S
INTL FALLS     PTCLDY    66  63  90 VRB5      29.76F
WASKISH        PTCLDY    66  61  82 S6        29.74S
BIG FORK       CLEAR     64  63  94 S7        29.81S
LONGVILLE      PTCLDY    64  63  94 S8        29.82S
GRAND RAPIDS     N/A     64  63  94 S12       29.84S
CRANE LAKE     CLEAR     64  63  94 S7        29.82F
ORR            PTCLDY    63  61  94 S6        29.80S
COOK           CLEAR     66  63  88 S7        29.83F
WALKER         FAIR      66  60  82 S7G16     29.80R
$$
MNZ012-019>021-037-311000-
   Northeast Minnesota

CITY           SKY/WX    TMP DP  RH WIND       PRES   REMARKS
DULUTH         CLOUDY    66  63  90 SW12      29.89S
ELY            CLEAR     64  63  94 S7        29.86F
HIBBING        CLOUDY    65  63  93 VRB5      29.86S
EVELETH        FOG       57  57 100 CALM      29.88S VSB 1/4
DULUTH HARBOR  MOCLDY    66  64  94 S6        29.88S
TWO HARBORS    CLOUDY    68  63  83 SW6       29.87F HAZE
SILVER BAY     CLOUDY    64  63  94 CALM      29.87S FOG
GRAND MARAIS     N/A     53  52  96 CALM      29.87S
G MARAIS ARPRT FOG       61  57  88 CALM      29.92R VSB 1
$$
MNZ029>031-032-039>041-046>048-054>057-064-311000-
   West Central Minnesota

CITY           SKY/WX    TMP DP  RH WIND       PRES   REMARKS
FERGUS FALLS   CLEAR     64  61  88 S15       29.76F
WHEATON        CLEAR     63  59  88 SE13      29.77S
MORRIS         CLEAR     63  63 100 SE10      29.80F FOG
ALEXANDRIA     CLEAR     64  62  93 S10       29.85S
ELBOW LAKE     FAIR      64  61  91 S14       29.79F
WADENA         CLEAR     63  61  94 S6        29.81F
GLENWOOD       PTCLDY    63  63 100 S8        29.86S FOG
APPLETON       CLEAR     64  61  88 SE7       29.82S FOG
BENSON         CLEAR     63  61  94 S6        29.84S FOG
ORTONVILLE     CLEAR     63  59  88 SE7       29.79F
MADISON        CLEAR     66  63  88 S10       29.82S
WILLMAR        FAIR      64  64 100 SE6       29.88S FOG
$$
MNZ033>034-036-042>043-049>051-058-059-311000-
   Central Minnesota

CITY           SKY/WX    TMP DP  RH WIND       PRES   REMARKS
ST CLOUD       CLOUDY    65  64  97 S7        29.88F FOG
SAUK CENTRE    FAIR      62  62  98 SE6       29.86S FOG
PAYNESVILLE    CLOUDY    65  64  97 SE8       29.88F FOG
AITKIN         CLEAR     66  61  82 S7        29.85S
PINE RIVER     PTCLDY    63  63 100 SE7       29.86F FOG
BRAINERD       PTCLDY    64  63  96 S10       29.85F
STAPLES        CLEAR     63  61  94 S9        29.83F
LONG PRAIRIE   CLOUDY    61  61 100 SE9       29.86S FOG
LITTLE FALLS   PTCLDY    63  61  94 SE6       29.87S FOG
LITCHFIELD     MOCLDY    66  66 100 S5        29.90S FOG
BUFFALO        CLOUDY    66  64  91 S12       29.92S
MAPLE LAKE     CLOUDY    67  66  95 S6        29.91S FOG
$$
MNZ037-044-045-052-053-311000-
   East Central Minnesota

CITY           SKY/WX    TMP DP  RH WIND       PRES   REMARKS
PRINCETON      CLOUDY    68  64  88 S7        29.90S
MORA           CLOUDY    64  64 100 S7        29.92S
CAMBRIDGE      PTCLDY    66  57  72 S5        29.90S HAZE
RUSH CITY      CLOUDY    64  62  96 S7        29.92R
MOOSE LAKE     CLOUDY    64  63  94 S7        29.88S
HINCKLEY       CLOUDY    64  64 100 S6        29.91S FOG
CLOQUET        CLOUDY    66  63  88 S8        29.90R
MCGREGOR       CLEAR     63  63 100 S6        29.87F
$$
MNZ071>073-080-081-089-090-097-098-311000-
   Southwest Minnesota

CITY           SKY/WX    TMP DP  RH WIND       PRES   REMARKS
MONTEVIDEO     CLEAR     63  63 100 S6        29.86S FOG
GRANITE FALLS  CLOUDY    64  63  97 S7        29.87S FOG
CANBY          CLEAR     68  62  81 S8G16     29.83F
MARSHALL       CLEAR     66  61  82 SW17      29.86F
REDWOOD FALLS  CLEAR     65  63  93 S8        29.88S
OLIVIA         CLEAR     61  59  94 S7        29.87F FOG
PIPESTONE      CLEAR     66  64  94 SW13      29.91S FOG
WINDOM         CLEAR     66  63  88 S15       29.92S
WORTHINGTON    CLEAR     64  61  88 S15       29.93S
JACKSON        CLEAR     64  63  94 S10       29.94F FOG
TRACY          PTCLDY    68  65  92 SW20G25   29.87F
SLAYTON        FAIR      65  65  98 S16       29.92S FOG
$$
MNZ065>067-074>077-082>085-091>093-311000-
   South Central Minnesota

CITY           SKY/WX    TMP DP  RH WIND       PRES   REMARKS
MANKATO        CLEAR     63  61  94 S7        29.93F
NEW ULM        CLEAR     64  64 100 S8        29.91S FOG
ST JAMES       CLEAR     64  64 100 S8        29.93S
FAIRMONT       CLEAR     64  59  82 S9        29.94S
GLENCOE        MOCLDY    65  65  99 S6        29.91S FOG
FARIBAULT      CLEAR     63  63 100 S7        29.96S FOG
OWATONNA       FOG       64  63  94 S13       29.96S VSB 1/2
WASECA         CLOUDY    64  63  94 S8        29.97S FOG
ALBERT LEA     CLOUDY    66  66 100 S9        29.97F FOG
$$
MNZ078>079-086>088-094>096-311000-
   Southeast Minnesota

CITY           SKY/WX    TMP DP  RH WIND       PRES   REMARKS
ROCHESTER      CLOUDY    63  62  97 S8        29.99F FOG
RED WING       CLEAR     63  61  94 SE3       29.95F
STANTON        CLEAR     65  63  91 S5        29.94S
DODGE CENTER   FOG       64  64 100 S13       29.98S VSB 1/2
WINONA         CLEAR     61  59  94 CALM      29.99S FOG
PRESTON        CLOUDY    64  62  94 S8        30.01S FOG
$$
ABBREVIATIONS USED IN REMARKS
   TC - TEMPERATURES IN CELSIUS
  WCI - WIND CHILL INDEX
   HX - HEAT INDEX
  VSB - VISIBILITY
$$



USA.gov is the U.S. government's official web portal to all federal, state and local government web resources and services.